Location: Earls Croome
(52.0667°N, 2.2000°W)
Time: 14:14:36
(UTC+00:00)

Meteor PRIRODA - Pass Details

Date: 17 November 2019
Orbit: 490 x 512 km, 97.5° (Epoch: 09 December)

Event Time Altitude Azimuth Distance (km) Brightness Sun altitude
Rises 04:56:14 0° 17° (NNE) 2,610 7.5 -23.6°
Reaches altitude 10° 04:58:22 10° 22° (NNE) 1,717 6.6 -23.2°
Maximum altitude 05:02:00 54° 101° (E) 609 4.3 -22.7°
Drops below altitude 10° 05:05:35 10° 179° (S) 1,690 6.3 -22.1°
Sets 05:07:40 0° 184° (S) 2,565 7.2 -21.8°
